This demonstration page uses our WeatherBlox Daily Observations layout. Learn more.

Left ArrowRight Arrow

41.86663, -103.66717

Hourly Observations for October 4, 2018

Temp ( °F °C ) Dew Point ( °F °C ) Humidity (%) Winds ( mph kmh ) Pressure ( in mb ) Visibility ( mi km ) Precip ( " mm )
12:53 am 00:53 Mostly Clear 39 3.9 31 -0.6 73 73 ENE 7 11 30.16 1021 10 16 0.00 0.00
1:53 am 01:53 Mostly Clear 37 2.8 30 -1.1 76 76 E 8 13 30.16 1021 10 16 0.00 0.00
2:53 am 02:53 Cloudy with Light Rain 37 2.8 33 0.6 86 86 SSE 10 17 30.18 1022 10 16 0.00 0.03
3:53 am 03:53 Cloudy with Light Rain 37 2.8 34 1.1 89 89 ESE 9 15 30.18 1022 10 16 0.03 0.76
4:53 am 04:53 Cloudy 37 2.8 34 1.1 89 89 ESE 14 22 30.16 1021 10 16 0.01 0.25
5:53 am 05:53 Cloudy 36 2.2 32 0 86 86 ESE 16 26 30.17 1022 10 16 0.00 0.00
6:53 am 06:53 Cloudy 36 2.2 34 1.1 93 93 ESE 15 24 30.17 1022 10 16 0.00 0.00
7:53 am 07:53 Cloudy 37 2.8 34 1.1 89 89 ESE 15 24 30.15 1021 10 16 0.00 0.00
8:53 am 08:53 Cloudy 38 3.3 35 1.7 89 89 ESE 17 28 30.16 1021 10 16 0.00 0.00
9:53 am 09:53 Cloudy 42 5.6 35 1.7 76 76 ESE 14 22 30.14 1021 10 16 0.00 0.00
10:53 am 10:53 Cloudy 44 6.7 36 2.2 73 73 ESE 17 28 30.11 1020 10 16 0.00 0.00
11:53 am 11:53 Partly Cloudy 49 9.4 36 2.2 61 61 ESE 16 26 30.05 1018 10 16 0.00 0.00
12:53 pm 12:53 Sunny 53 11.7 38 3.3 57 57 SE 22 35 29.99 1016 10 16 0.00 0.00
1:53 pm 13:53 Sunny 56 13.3 36 2.2 47 47 SSE 18 30 29.91 1013 10 16 0.00 0.00
2:53 pm 14:53 Sunny 58 14.4 37 2.8 46 46 SE 18 30 29.86 1011 10 16 0.00 0.00
3:38 pm 15:38 Mostly Cloudy with Thunderstorms 55 13 37 3 51 51 S 15 24 29.85 1011 10 16 0.00 0.00
3:53 pm 15:53 Cloudy with Nearby Thunderstorms 54 12.2 43 6.1 67 67 S 10 17 29.92 1013 5 8 0.01 0.25
4:01 pm 16:01 Cloudy with Light Rain 53 11.7 45 7.2 74 74 S 12 19 29.85 1011 5 8 0.01 0.25
4:20 pm 16:20 Cloudy with Light Rain 52 11 48 9 88 88 ESE 15 24 29.77 1008 9 14 0.00 0.00
4:53 pm 16:53 Mostly Cloudy 51 10.6 48 8.9 89 89 S 8 13 29.85 1011 10 16 0.03 0.76
5:53 pm 17:53 Sunny 51 10.6 47 8.3 86 86 NE 9 15 29.82 1010 10 16 0.00 0.00
6:53 pm 18:53 Mostly Cloudy 50 10 46 7.8 86 86 SE 8 13 29.86 1011 10 16 0.00 0.00
7:53 pm 19:53 Cloudy with Light Rain 48 8.9 46 7.8 93 93 ESE 7 11 29.89 1012 10 16 0.00 0.03
8:53 pm 20:53 Mostly Clear 46 7.8 43 6.1 89 89 ESE 7 11 29.89 1012 10 16 0.00 0.03
9:53 pm 21:53 Clear 42 5.6 41 5 96 96 ESE 10 17 29.88 1012 10 16 0.00 0.00
10:53 pm 22:53 Clear 41 5 40 4.4 96 96 E 9 15 29.87 1011 10 16 0.00 0.00
11:53 pm 23:53 Clear 40 4.4 40 4.4 100 100 E 7 11 29.85 1011 10 16 0.00 0.00

Powered by AerisWeather